Regional Weather Roundup
Issued by NWS Nashville, TN

Current Version | Previous Version | Text Only | Print | Product List | Glossary On
Versions: 1 2 3 4 5 6 7 8 9 10 11 12 13 14 15 16 17 18 19 20 21 22 23 24 25 26 27 28 29 30 31 32 33 34 35 36 37 38 39 40 41 42 43 44 45 46 47 48 49 50
000
ASUS44 KOHX 011215
RWROHX
MIDDLE TENNESSEE HOURLY WEATHER ROUNDUP
NATIONAL WEATHER SERVICE NASHVILLE TN
600 AM CST SUN MAR 01 2015

NOTE: "FAIR" INDICATES FEW OR NO CLOUDS BELOW 12,000 FEET WITH
NO SIGNIFICANT WEATHER AND/OR OBSTRUCTIONS TO VISIBILITY.

* THESE REPORTS ARE NOT UNDER NWS QUALITY CONTROL AND MAY NOT
  REPORT WEATHER SUCH AS PRECIPITATION AND FOG.


TNZ005>011-023>034-057-059-062>066-078-080-011300
...NORTHERN MIDDLE TENNESSEE...

CITY           SKY/WX    TMP DP  RH WIND       PRES   REMARKS
CLARKSVILLE    CLOUDY    36  28  73 CALM      30.35F
CROSSVILLE     CLOUDY    43  36  76 S7        30.40R
GALLATIN         N/A     41  33  73 CALM      30.38S
DICKSON        CLOUDY    36  27  69 E3        30.33S
LEBANON        CLOUDY    42  34  73 CALM      30.36S
LIVINGSTON     CLOUDY    45  36  70 S6        30.37R
NASHVILLE      CLOUDY    44  33  65 CALM      30.38R
WEST NASHVILLE CLOUDY    37  32  81 CALM      30.38R
PORTLAND       CLOUDY    36  28  75 CALM      30.35S
SMYRNA         CLOUDY    42  35  76 CALM      30.40R
SPARTA         CLOUDY    45  36  70 S9        30.38S
$$
TNZ056-058-060-061-075>077-079-093>097-011300
...SOUTHERN MIDDLE TENNESSEE...

CITY           SKY/WX    TMP DP  RH WIND       PRES   REMARKS
COLUMBIA         N/A     48  43  81 S5        30.35R
LEWISBURG      CLOUDY    46  34  63 S3        30.37R
MCMINNVILLE    MOCLDY    41  36  81 E3        30.38F
MURFREESBORO   CLOUDY    46  34  63 SE6       30.37F
SHELBYVILLE    CLOUDY    46  37  71 S6        30.38F
TULLAHOMA      CLOUDY    43  34  70 SE8       30.38S
WINCHESTER     CLOUDY    45  36  70 SE3       30.41R
$$


...KEY TO REMARKS...
VSB - VISIBILITY IN MILES
WCI - WIND CHILL INDEX
HX  - HEAT INDEX



USA.gov is the U.S. government's official web portal to all federal, state and local government web resources and services.